HULIANWANG DIGUI-147

导读 | 豆包AI

“HULIANWANG DIGUI-147”是中国于2026年1月19日发射的低轨通信卫星,隶属于互联网低轨卫星星座建设体系,旨在进一步丰富全球网络通信覆盖,弥补地面网络在偏远区域、海洋空域等场景的覆盖盲区,为全球用户提供更稳定的宽带互联网接入服务,推动天地一体化网络构建,支撑全球互联互通与数字经济发展。

基本信息
目录编号:
67523
目录名称:
HULIANWANG DIGUI-147
国际标识:
2026-013B
轨道中心:
EARTH
卫星名称:
HULIANWANG DIGUI-147
卫星全名:
HULIANWANG DIGUI-147
卫星状态:
在轨 (已飞行75 天)
发射日期:
2026-01-19 UTC
国别 :
中国 (CN)
星等 :
--
轨道信息
数据来源 国际轨道数据
星历时间: 2026-04-04T01:21:08+0800
8小时前
查看轨道信息
半长轴: 7527.449km
偏心率: 0.0000148
轨道倾角: 50.005°
近地点辐角 166.431°
升交点赤经 262.847°
平近点角 193.657°
近地点: 1149.2km
远地点: 1149.424km
周期: 108.326分钟
每日圈数: 13.293247
详细信息
使用方式:
暂无
2D轨道图
3D轨道图
轨道高度分析图
轨道倾角分析图
轨道综合分析图
查看轨道综合分析图